KF0EZB Weather Reports


Display with metric or nautical units.
time (UTC)temp
F
wind
direction
speed
MPH
gust
MPH
rain 1hr
in
rain 24hr
in
rain mn
in
humidity
%
barometer
mb
20260510132447 51 84 1.0 6.0 0.00 0.05 0.05 88 1021.7
20260510131944 50 19 1.0 3.0 0.00 0.05 0.05 91 1021.7
20260510131442 50 58 0.0 0.0 0.00 0.05 0.05 92 1022.0
20260510130938 49 93 0.0 0.0 0.00 0.05 0.05 92 1021.6
20260510130435 49 83 0.0 2.0 0.00 0.05 0.05 92 1021.3
20260510125932 49 97 1.0 2.0 0.00 0.05 0.05 93 1021.2
20260510125428 49 105 0.0 1.0 0.00 0.05 0.05 93 1020.9
20260510124925 49 91 0.0 1.0 0.00 0.05 0.05 93 1021.1
20260510124422 49 66 0.0 1.0 0.00 0.05 0.05 93 1021.0
20260510123918 49 87 0.0 2.0 0.00 0.05 0.05 93 1020.9
20260510123414 49 68 0.0 2.0 0.00 0.05 0.05 93 1020.9
20260510122910 49 55 0.0 0.0 0.00 0.05 0.05 93 1020.7
20260510122405 49 85 0.0 1.0 0.00 0.05 0.05 93 1020.7
20260510121902 49 78 0.0 1.0 0.00 0.05 0.05 93 1020.6
20260510121359 49 67 0.0 0.0 0.00 0.05 0.05 93 1020.2
20260510120856 49 54 0.0 1.0 0.00 0.05 0.05 92 1020.1
20260510120354 50 83 0.0 3.0 0.00 0.05 0.05 92 1019.9
20260510115849 50 63 0.0 1.0 0.00 0.05 0.05 92 1020.0
20260510115346 50 90 0.0 1.0 0.05 0.05 0.05 91 1020.0
20260510114842 50 41 0.0 5.0 0.00 0.04 0.04 91 1019.8
20260510114340 50 71 0.0 5.0 0.00 0.04 0.04 90 1019.9
20260510113839 50 97 0.0 1.0 0.07 0.04 0.04 89 1019.6
20260510113336 51 100 2.0 6.0 0.07 0.04 0.04 88 1019.0
20260510112833 51 93 2.0 8.0 0.05 0.03 0.03 87 1019.1
20260510112330 51 90 3.0 5.0 0.05 0.03 0.03 85 1019.1
20260510111826 52 104 2.0 3.0 0.07 0.02 0.02 84 1019.4
20260510111323 52 96 0.0 2.0 0.07 0.02 0.02 82 1019.7
20260510110823 53 73 0.0 3.0 0.05 0.01 0.01 80 1019.6
20260510110320 53 103 1.0 2.0 0.00 0.00 0.00 78 1019.2
20260510105816 53 96 0.0 3.0 0.00 0.00 0.00 76 1019.0
20260510105310 54 69 0.0 2.0 0.00 0.00 0.00 76 1019.3
20260510104807 54 39 0.0 0.0 0.00 0.00 0.00 74 1019.2
20260510104305 55 312 0.0 1.0 0.00 0.00 0.00 70 1019.4
20260510103801 56 293 0.0 2.0 0.00 0.00 0.00 66 1019.1
20260510103257 56 119 1.0 2.0 0.00 0.00 0.00 64 1018.4
20260510102752 56 63 0.0 2.0 0.00 0.00 0.00 64 1018.2
20260510102248 56 59 2.0 5.0 0.00 0.00 0.00 64 1017.9
20260510101746 56 66 0.0 6.0 0.00 0.00 0.00 63 1017.9
20260510101244 56 87 1.0 5.0 0.00 0.00 0.00 63 1017.8
20260510100740 56 73 0.0 2.0 0.00 0.00 0.00 63 1017.8
20260510100238 56 73 1.0 3.0 0.00 0.00 0.00 63 1017.7
20260510095733 56 88 2.0 6.0 0.00 0.00 0.00 61 1017.3
20260510095228 56 37 5.0 7.0 0.00 0.00 0.00 60 1017.3
20260510094727 56 64 1.0 5.0 0.00 0.00 0.00 60 1016.9
20260510094223 56 59 1.0 5.0 0.00 0.00 0.00 60 1017.2
20260510093719 56 49 1.0 5.0 0.00 0.00 0.00 60 1017.1
20260510093217 56 18 3.0 7.0 0.00 0.00 0.00 60 1017.4
20260510092713 56 83 2.0 5.0 0.00 0.00 0.00 60 1017.4
20260510092208 56 86 0.0 8.0 0.00 0.00 0.00 60 1017.6
20260510091704 56 60 0.0 3.0 0.00 0.00 0.00 61 1017.2
20260510091201 56 73 2.0 8.0 0.00 0.00 0.00 61 1017.4
20260510090658 56 71 1.0 9.0 0.00 0.00 0.00 61 1017.3
20260510090154 56 19 5.0 8.0 0.00 0.00 0.00 62 1017.4
20260510085649 56 43 4.0 9.0 0.00 0.00 0.00 64 1017.3
20260510085144 57 76 0.0 10.0 0.00 0.00 0.00 65 1017.5
20260510084641 57 70 1.0 6.0 0.00 0.00 0.00 66 1017.6
20260510084138 57 13 5.0 10.0 0.00 0.00 0.00 67 1017.5
20260510083635 56 52 0.0 6.0 0.00 0.00 0.00 69 1017.6
20260510083132 57 73 1.0 7.0 0.00 0.00 0.00 69 1017.3
20260510082628 57 85 2.0 3.0 0.00 0.00 0.00 69 1017.4
20260510082123 57 59 1.0 6.0 0.00 0.00 0.00 70 1017.5
20260510081618 57 41 3.0 5.0 0.00 0.00 0.00 70 1017.6
20260510081114 57 70 3.0 3.0 0.00 0.00 0.00 71 1017.6
20260510080613 56 56 1.0 5.0 0.00 0.00 0.00 72 1017.5
20260510080111 56 79 1.0 8.0 0.00 0.00 0.00 72 1017.6
20260510075608 56 94 1.0 5.0 0.00 0.00 0.00 72 1017.4
20260510075105 56 140 0.0 2.0 0.00 0.00 0.00 72 1017.6
20260510074602 56 80 1.0 6.0 0.00 0.00 0.00 71 1017.2
20260510074057 56 130 0.0 2.0 0.00 0.00 0.00 71 1017.2
20260510073554 56 140 1.0 2.0 0.00 0.00 0.00 71 1016.9
20260510073051 57 91 1.0 6.0 0.00 0.00 0.00 71 1016.6
20260510072547 57 80 1.0 6.0 0.00 0.00 0.00 71 1016.7
20260510072043 57 49 2.0 6.0 0.00 0.00 0.00 71 1016.5
20260510071539 57 43 1.0 6.0 0.00 0.00 0.00 70 1016.4
20260510071038 57 87 0.0 3.0 0.00 0.00 0.00 71 1016.4
20260510070534 57 55 4.0 6.0 0.00 0.00 0.00 71 1016.5
20260510070031 57 70 1.0 6.0 0.00 0.00 0.00 70 1016.4
20260510065527 57 72 1.0 6.0 0.00 0.00 0.00 70 1016.3
20260510065023 57 64 0.0 3.0 0.00 0.00 0.00 71 1016.6
20260510064520 57 89 0.0 3.0 0.00 0.00 0.00 72 1016.5
20260510064017 57 58 0.0 6.0 0.00 0.00 0.00 72 1016.5
20260510063514 57 106 1.0 1.0 0.00 0.00 0.00 73 1016.4
20260510063011 57 68 2.0 2.0 0.00 0.00 0.00 73 1016.2
20260510062506 57 31 5.0 7.0 0.00 0.00 0.00 73 1015.9
20260510062002 57 78 1.0 3.0 0.00 0.00 0.00 74 1015.9
20260510061459 57 72 1.0 5.0 0.00 0.00 0.00 74 1015.8
20260510060955 57 34 2.0 6.0 0.00 0.00 0.00 74 1015.7
20260510060452 57 68 0.0 3.0 0.00 0.00 0.00 75 1015.8
20260510055948 57 60 1.0 3.0 0.00 0.00 0.00 76 1015.5
20260510055444 57 89 0.0 5.0 0.00 0.00 0.00 77 1015.2
20260510054943 57 92 1.0 2.0 0.00 0.00 0.00 77 1015.2
20260510054437 57 38 4.0 5.0 0.00 0.00 0.00 78 1015.1
20260510053932 58 115 0.0 0.0 0.00 0.00 0.00 77 1015.0
20260510053428 58 102 2.0 2.0 0.00 0.00 0.00 77 1014.8
20260510052925 59 94 1.0 2.0 0.00 0.00 0.00 76 1014.6
20260510052420 59 82 1.0 5.0 0.00 0.00 0.00 76 1014.5
20260510051917 59 91 2.0 3.0 0.00 0.00 0.00 76 1014.3
20260510051414 60 77 1.0 2.0 0.00 0.00 0.00 76 1014.3
20260510050910 60 80 1.0 2.0 0.00 0.00 0.00 75 1014.3
20260510050407 60 89 1.0 5.0 0.00 0.00 0.00 75 1014.3
20260510045904 60 74 2.0 2.0 0.00 0.00 0.00 75 1014.3
20260510045401 60 91 1.0 2.0 0.00 0.00 0.00 76 1014.4
20260510044858 60 103 0.0 3.0 0.00 0.00 0.00 76 1014.2
20260510044355 60 108 2.0 3.0 0.00 0.00 0.00 76 1013.7
20260510043851 60 97 2.0 3.0 0.00 0.00 0.00 76 1014.3
20260510043347 60 79 2.0 3.0 0.00 0.00 0.00 76 1014.1
20260510042845 60 102 2.0 7.0 0.00 0.00 0.00 76 1014.1
20260510042341 60 99 1.0 3.0 0.00 0.00 0.00 77 1013.8
20260510041837 60 73 2.0 3.0 0.00 0.00 0.00 76 1013.7
20260510041334 60 73 2.0 3.0 0.00 0.00 0.00 76 1013.5
20260510040832 60 81 1.0 3.0 0.00 0.00 0.00 75 1013.7
20260510040328 60 56 1.0 2.0 0.00 0.00 0.00 74 1013.8
20260510035824 60 87 2.0 5.0 0.00 0.00 0.00 73 1013.8
20260510035320 61 92 1.0 2.0 0.00 0.00 0.00 72 1013.4
20260510034816 61 94 2.0 3.0 0.00 0.00 0.00 72 1013.0
20260510034314 61 83 2.0 6.0 0.00 0.00 0.00 71 1013.0
20260510033810 61 40 3.0 5.0 0.00 0.00 0.00 71 1012.9
20260510033307 61 78 5.0 7.0 0.00 0.00 0.00 72 1012.6
20260510032804 60 84 1.0 3.0 0.00 0.00 0.00 73 1012.6
20260510032300 61 76 2.0 5.0 0.00 0.00 0.00 73 1012.3
20260510031756 61 77 1.0 3.0 0.00 0.00 0.00 72 1012.0
20260510031251 62 88 3.0 5.0 0.00 0.00 0.00 71 1011.6
20260510030745 62 109 0.0 5.0 0.00 0.00 0.00 70 1011.5
20260510030243 62 66 0.0 9.0 0.00 0.00 0.00 70 1011.4
20260510025740 62 89 0.0 6.0 0.00 0.00 0.00 69 1011.2
20260510025238 62 109 0.0 1.0 0.00 0.00 0.00 69 1011.1
20260510024734 63 76 0.0 2.0 0.00 0.00 0.00 68 1010.9
20260510024230 63 96 0.0 3.0 0.00 0.00 0.00 67 1011.1
20260510023726 64 61 0.0 2.0 0.00 0.00 0.00 65 1011.0
20260510023224 64 83 3.0 8.0 0.00 0.00 0.00 64 1010.8
20260510022720 65 49 1.0 3.0 0.00 0.00 0.00 62 1010.5
20260510022220 66 83 4.0 8.0 0.00 0.00 0.00 60 1010.4
20260510021715 66 74 1.0 8.0 0.00 0.00 0.00 59 1010.5
20260510021213 66 85 7.0 13.0 0.00 0.00 0.00 58 1010.2
20260510020708 67 90 6.0 11.0 0.00 0.00 0.00 57 1010.0
20260510020203 67 109 5.0 10.0 0.00 0.00 0.00 57 1009.8
20260510015659 67 82 9.0 14.0 0.00 0.00 0.00 56 1009.6
20260510015156 68 107 8.0 13.0 0.00 0.00 0.00 55 1009.2
20260510014656 68 86 11.0 18.0 0.00 0.00 0.00 54 1009.0
20260510014153 69 82 6.0 13.0 0.00 0.00 0.00 53 1009.1
20260510013648 69 80 10.0 15.0 0.00 0.00 0.00 53 1008.9
20260510013144 69 79 7.0 14.0 0.00 0.00 0.00 55 1008.8
20260510012644 69 84 7.0 10.0 0.00 0.00 0.00 54 1008.8
20260510012140 70 91 5.0 10.0 0.00 0.00 0.00 53 1008.5
20260510011635 71 65 7.0 16.0 0.00 0.00 0.00 50 1008.6
20260510011131 71 98 10.0 17.0 0.00 0.00 0.00 49 1008.7
20260510010627 72 110 9.0 17.0 0.00 0.00 0.00 49 1008.7
20260510010124 73 86 10.0 15.0 0.00 0.00 0.00 46 1008.3
20260510005619 73 87 9.0 10.0 0.00 0.00 0.00 48 1008.1
20260510005117 73 74 7.0 9.0 0.00 0.00 0.00 47 1008.1
20260510004615 73 38 7.0 11.0 0.00 0.00 0.00 48 1008.2
20260510004113 74 60 4.0 8.0 0.00 0.00 0.00 48 1008.2
20260510003610 76 62 3.0 13.0 0.00 0.00 0.00 42 1008.3
20260510003106 77 91 9.0 16.0 0.00 0.00 0.00 37 1008.5
20260510002600 77 77 5.0 7.0 0.00 0.00 0.00 37 1008.3
20260510002057 77 100 0.0 2.0 0.00 0.00 0.00 36 1008.0
20260510001555 77 113 5.0 7.0 0.00 0.00 0.00 37 1007.6
20260510001054 78 91 2.0 6.0 0.00 0.00 0.00 37 1007.5
20260510000548 78 141 2.0 6.0 0.00 0.00 0.00 36 1007.1
20260510000046 79 126 4.0 10.0 0.00 0.00 0.00 36 1007.4
20260509235542 79 142 0.0 6.0 0.00 0.00 0.00 38 1007.2
20260509235038 78 156 1.0 2.0 0.00 0.00 0.00 38 1007.8
20260509234534 78 117 0.0 2.0 0.00 0.00 0.00 38 1007.2
20260509234033 77 171 1.0 5.0 0.00 0.00 0.00 38 1006.9
20260509233530 78 134 2.0 8.0 0.00 0.00 0.00 39 1007.0
20260509233027 79 182 2.0 5.0 0.00 0.00 0.00 37 1007.2
20260509232524 80 174 2.0 3.0 0.00 0.00 0.00 35 1007.3
20260509232020 81 243 2.0 2.0 0.00 0.00 0.00 32 1007.2
20260509231517 82 213 5.0 13.0 0.00 0.00 0.00 32 1006.9
20260509231015 83 136 2.0 3.0 0.00 0.00 0.00 27 1007.2
20260509230511 82 133 4.0 6.0 0.00 0.00 0.00 26 1006.5
20260509230008 81 179 1.0 9.0 0.00 0.00 0.00 27 1006.3
20260509225503 82 121 3.0 5.0 0.00 0.00 0.00 26 1006.2
20260509224959 82 137 1.0 6.0 0.00 0.00 0.00 26 1005.9
20260509224455 82 82 2.0 5.0 0.00 0.00 0.00 26 1006.1
20260509223952 82 126 2.0 3.0 0.00 0.00 0.00 26 1006.0
20260509223449 83 121 2.0 3.0 0.00 0.00 0.00 25 1006.2
20260509222946 84 97 2.0 6.0 0.00 0.00 0.00 25 1006.2
20260509222442 84 173 5.0 8.0 0.00 0.00 0.00 24 1006.0
20260509221938 84 139 2.0 6.0 0.00 0.00 0.00 24 1006.4
20260509221434 84 137 2.0 7.0 0.00 0.00 0.00 24 1006.3
20260509220930 85 131 1.0 6.0 0.00 0.00 0.00 24 1006.3
20260509220426 86 142 2.0 7.0 0.00 0.00 0.00 23 1006.4
20260509215923 88 161 3.0 5.0 0.00 0.00 0.00 21 1006.5
20260509215418 89 164 1.0 6.0 0.00 0.00 0.00 21 1006.7
20260509214916 89 96 1.0 7.0 0.00 0.00 0.00 22 1006.9
20260509214413 89 173 3.0 5.0 0.00 0.00 0.00 21 1006.9
20260509213910 88 132 0.0 5.0 0.00 0.00 0.00 21 1007.0
20260509213405 85 125 2.0 6.0 0.00 0.00 0.00 23 1007.1
20260509212903 85 125 1.0 2.0 0.00 0.00 0.00 22 1007.2
20260509212400 85 195 0.0 3.0 0.00 0.00 0.00 22 1007.4
20260509211856 86 130 1.0 3.0 0.00 0.00 0.00 22 1007.4
20260509211352 86 137 2.0 6.0 0.00 0.00 0.00 21 1007.3
20260509210849 87 160 2.0 3.0 0.00 0.00 0.00 21 1007.5
20260509210346 89 232 0.0 5.0 0.00 0.00 0.00 20 1007.3
20260509205846 88 256 5.0 7.0 0.00 0.00 0.00 20 1007.6
20260509205341 89 187 4.0 8.0 0.00 0.00 0.00 20 1007.8
20260509204838 89 193 2.0 5.0 0.00 0.00 0.00 20 1007.8
20260509204334 88 205 2.0 3.0 0.00 0.00 0.00 20 1007.9
20260509203830 89 185 3.0 6.0 0.00 0.00 0.00 20 1008.1
20260509203327 88 102 5.0 7.0 0.00 0.00 0.00 20 1008.2
20260509202823 87 215 2.0 5.0 0.00 0.00 0.00 21 1008.1
20260509202320 87 186 1.0 5.0 0.00 0.00 0.00 21 1008.1
20260509201819 87 199 3.0 3.0 0.00 0.00 0.00 20 1008.3
20260509201316 88 195 2.0 5.0 0.00 0.00 0.00 20 1008.3
20260509200812 88 66 2.0 5.0 0.00 0.00 0.00 20 1008.1
20260509200308 87 147 3.0 7.0 0.00 0.00 0.00 19 1008.1
20260509195804 87 143 4.0 6.0 0.00 0.00 0.00 20 1008.3
20260509195300 88 128 4.0 6.0 0.00 0.00 0.00 19 1008.1
20260509194759 88 118 3.0 9.0 0.00 0.00 0.00 20 1008.6
20260509194255 88 150 1.0 6.0 0.00 0.00 0.00 19 1008.5
20260509193753 88 202 4.0 8.0 0.00 0.00 0.00 19 1008.2
20260509193253 88 118 2.0 3.0 0.00 0.00 0.00 21 1008.3
20260509192749 87 171 1.0 11.0 0.00 0.00 0.00 22 1008.3
20260509192244 87 176 2.0 8.0 0.00 0.00 0.00 23 1008.3
20260509191739 87 131 2.0 6.0 0.00 0.00 0.00 22 1008.5
20260509191236 88 163 1.0 5.0 0.00 0.00 0.00 20 1008.6
20260509190732 87 104 1.0 5.0 0.00 0.00 0.00 22 1008.8
20260509190229 88 340 3.0 8.0 0.00 0.00 0.00 22 1009.1
20260509185727 87 164 3.0 9.0 0.00 0.00 0.00 22 1008.9
20260509185223 86 97 3.0 7.0 0.00 0.00 0.00 21 1008.9
20260509184721 87 184 1.0 5.0 0.00 0.00 0.00 21 1009.0
20260509184218 86 252 2.0 3.0 0.00 0.00 0.00 21 1009.1
20260509183714 85 200 1.0 5.0 0.00 0.00 0.00 21 1009.1
20260509183209 85 220 4.0 7.0 0.00 0.00 0.00 20 1009.2
20260509182705 86 295 4.0 6.0 0.00 0.00 0.00 20 1009.3
20260509182203 85 73 3.0 9.0 0.00 0.00 0.00 21 1009.4
20260509181700 85 182 1.0 5.0 0.00 0.00 0.00 23 1009.5
20260509181158 85 139 2.0 6.0 0.00 0.00 0.00 22 1009.6
20260509180654 85 146 1.0 2.0 0.00 0.00 0.00 23 1009.6
20260509180150 84 238 3.0 8.0 0.00 0.00 0.00 25 1009.6
20260509175646 83 169 1.0 6.0 0.00 0.00 0.00 26 1009.8
20260509175144 84 153 1.0 5.0 0.00 0.00 0.00 26 1010.2
20260509174639 84 170 1.0 7.0 0.00 0.00 0.00 26 1010.3
20260509174134 83 224 3.0 5.0 0.00 0.00 0.00 27 1010.0
20260509173630 83 221 2.0 6.0 0.00 0.00 0.00 27 1010.3
20260509173126 82 169 1.0 3.0 0.00 0.00 0.00 30 1010.3
20260509172623 81 185 1.0 2.0 0.00 0.00 0.00 30 1010.6
20260509172119 80 225 2.0 6.0 0.00 0.00 0.00 31 1010.7
20260509171615 79 182 2.0 5.0 0.00 0.00 0.00 31 1010.7
20260509171111 79 195 2.0 3.0 0.00 0.00 0.00 32 1010.9
20260509170608 78 259 2.0 2.0 0.00 0.00 0.00 34 1010.9
20260509170104 77 212 1.0 5.0 0.00 0.00 0.00 34 1010.9
20260509165602 78 219 1.0 5.0 0.00 0.00 0.00 33 1011.1
20260509165058 78 258 2.0 10.0 0.00 0.00 0.00 33 1011.0
20260509164554 79 298 1.0 7.0 0.00 0.00 0.00 33 1011.2
20260509164050 77 211 1.0 3.0 0.00 0.00 0.00 35 1011.3
20260509163549 75 154 2.0 2.0 0.00 0.00 0.00 36 1011.2
20260509163044 74 158 1.0 2.0 0.00 0.00 0.00 37 1011.2
20260509162541 74 184 1.0 2.0 0.00 0.00 0.00 37 1011.3
20260509162036 74 278 4.0 5.0 0.00 0.00 0.00 37 1011.4
20260509161533 74 249 3.0 6.0 0.00 0.00 0.00 37 1011.5
20260509161028 74 258 4.0 7.0 0.00 0.00 0.00 38 1011.6
20260509160524 74 206 2.0 5.0 0.00 0.00 0.00 39 1011.6
20260509160020 74 247 2.0 5.0 0.00 0.00 0.00 40 1011.3
20260509155516 73 231 1.0 3.0 0.00 0.00 0.00 40 1011.6
20260509155012 73 231 1.0 3.0 0.00 0.00 0.00 40 1011.6
20260509154509 73 236 3.0 5.0 0.00 0.00 0.00 41 1011.4
20260509154007 73 191 1.0 2.0 0.00 0.00 0.00 42 1011.4
20260509153503 72 172 1.0 2.0 0.00 0.00 0.00 42 1011.4
20260509153000 72 174 1.0 3.0 0.00 0.00 0.00 42 1011.4
20260509152455 71 190 2.0 3.0 0.00 0.00 0.00 42 1011.6
20260509151952 71 250 2.0 6.0 0.00 0.00 0.00 42 1011.5
20260509151449 71 169 1.0 3.0 0.00 0.00 0.00 43 1011.4
20260509150947 71 174 1.0 2.0 0.00 0.00 0.00 44 1011.6
20260509150444 70 164 0.0 1.0 0.00 0.00 0.00 45 1011.2
20260509145942 70 205 2.0 3.0 0.00 0.00 0.00 44 1011.5
20260509145437 70 245 1.0 2.0 0.00 0.00 0.00 44 1011.7
20260509144933 70 195 1.0 5.0 0.00 0.00 0.00 43 1011.6
20260509144430 70 186 2.0 6.0 0.00 0.00 0.00 43 1011.5
20260509143927 70 244 5.0 9.0 0.00 0.00 0.00 42 1011.5
20260509143424 70 219 2.0 5.0 0.00 0.00 0.00 42 1011.2
20260509142920 70 222 2.0 7.0 0.00 0.00 0.00 43 1011.1
20260509142417 70 279 2.0 5.0 0.00 0.00 0.00 43 1011.2
20260509141913 69 247 2.0 5.0 0.00 0.00 0.00 44 1011.1
20260509141410 69 256 3.0 5.0 0.00 0.00 0.00 44 1011.2
20260509140907 68 218 1.0 3.0 0.00 0.00 0.00 46 1011.1
20260509140403 68 256 3.0 5.0 0.00 0.00 0.00 47 1011.2
20260509135901 68 251 2.0 5.0 0.00 0.00 0.00 47 1011.0
20260509135358 68 220 2.0 5.0 0.00 0.00 0.00 49 1010.9
20260509134856 67 258 0.0 2.0 0.00 0.00 0.00 50 1011.0
20260509134353 67 198 0.0 3.0 0.00 0.00 0.00 50 1010.9
20260509133850 66 134 3.0 6.0 0.00 0.00 0.00 50 1011.0
20260509133346 65 279 0.0 0.0 0.00 0.00 0.00 52 1011.2
20260509132845 65 216 2.0 3.0 0.00 0.00 0.00 54 1010.9